Home   Weather   Mostar   Past weeks

Flag for Bosnia-Herzegovina Past Weather in Mostar, Bosnia-Herzegovina — Yesterday and Last 2 Weeks

Now
46 °F

Light rain. Fog.


Feels Like: 45 °F
Forecast: 36 / 61 °F
Wind: 3 mph from Southeast

Location: Mostar

Current Time: Apr 23, 2017 at 10:15:07 am

Latest Report: Apr 23, 2017 at 9:00 am


Visibility: 3 mi

Pressure: 30.04 "Hg

Humidity: 82%

Dew Point: 41 °F

Location of MostarLocation

Past Weather in Mostar — Graph

°F

Mostar Temperature Yesterday

Maximum temperature yesterday: 66 °F (at 4:00 pm)
Minimum temperature yesterday: 32 °F (at 4:00 am)
Average temperature yesterday: 49 °F

High & Low Weather Summary for the Past Weeks

 TemperatureHumidityPressure
High77 °F (Apr 14, 2:00 pm)100% (Apr 16, 11:00 am)30.27 "Hg (Apr 16, 11:00 am)
Low32 °F (Apr 22, 4:00 am)25% (Apr 9, 3:00 pm)29.65 "Hg (Apr 18, 9:00 pm)
Average55 °F56%29.99 "Hg
* Reported Apr 8 9:00 am — Apr 23 9:00 am, Mostar, Weather by CustomWeather, © 2017

Note: Actual official high and low records may vary slightly from our data, if they occured in-between our weather recording intervals... More about our weather records

Advertising

Mostar Weather History for the Previous 24 Hours

Scroll right to see more
 ConditionsComfort  
Time TempWeatherWind HumidityBarometerVisibility
9:00 am
Sun, Apr 23
46 °FLight rain. Fog.3 mph82%30.04 "Hg3 mi
8:00 am45 °FPartly sunny.3 mph87%30.04 "Hg5 mi
7:00 am43 °FPartly sunny.5 mph87%30.01 "HgN/A
6:00 am41 °FPassing clouds.2 mph87%30.01 "Hg6 mi
5:00 am43 °FClear.2 mph81%30.01 "Hg10 mi
4:00 am43 °FClear.2 mph87%30.01 "Hg10 mi
3:00 am43 °FClear.1 mph87%30.01 "Hg10 mi
2:00 am41 °FClear.1 mph87%30.04 "Hg10 mi
1:00 am43 °FPassing clouds.3 mph81%30.04 "HgN/A
12:00 am43 °FClear.2 mph81%30.04 "Hg10 mi
11:00 pm
Sat, Apr 22
46 °FClear.1 mph71%30.04 "Hg10 mi
10:00 pm50 °FClear.2 mph62%30.04 "Hg10 mi
8:00 pm55 °FClear.9 mph51%30.01 "Hg10 mi
7:00 pm59 °FPassing clouds.7 mph42%29.98 "HgN/A
6:00 pm63 °FPassing clouds.7 mph34%29.98 "HgN/A
5:00 pm64 °FPassing clouds.8 mph28%30.01 "HgN/A
4:00 pm66 °FPassing clouds.9 mph28%30.01 "HgN/A
3:00 pm64 °FPassing clouds.7 mph30%30.04 "HgN/A
2:00 pm63 °FPassing clouds.3 mph32%30.07 "HgN/A
1:30 pm63 °FPassing clouds.7 mph30%30.09 "HgN/A
1:00 pm61 °FPassing clouds.7 mph34%30.09 "HgN/A
12:30 pm59 °FPassing clouds.5 mph31%30.12 "HgN/A
12:00 pm59 °FPassing clouds.3 mph31%30.12 "HgN/A
11:30 am57 °FPassing clouds.3 mph33%30.15 "HgN/A
11:00 am55 °FPassing clouds.3 mph36%30.15 "HgN/A
10:30 am52 °FPassing clouds.6 mph38%30.18 "HgN/A
10:00 am50 °FPassing clouds.3 mph37%30.18 "HgN/A
Weather by CustomWeather, © 2017

See weather overviewHow to use our weather pages